Ле Пюи-ан-Веле

Франция     45°02′32″N   3°52′51″E
В апреле 2022 года жителям России запретили посещать сайт meteo.paraplan.net по решению Генеральной прокуратуры. Аудитория сайта уменьшилась в 10 раз. Владельцы сайта не видят смысла в поддержке погодного сервера в таких условиях. Сайт будет закрыт в октябре.
темп.,
°C
ветер,
м/с
пор.,
м/с
влажн.,
%
обл.,
%
осадки,
мм/ч
давл.,
гПа
погр.,
м
30 сентября, пт
пт3023:00+6ссз1390100 0.3 1006100
02:00+3с1198100 0.3 100927
05:00+4ссз1298100 0.0 1009114
08:00+3ссз239983 0.0 1011169
11:00+6ссз3684100 0.1 1012760
14:00+7ссз3779100 0.3 10131087
17:00+10ссз465699 0.1 10131471
20:00+5с11830 0.1 101612
1 октября, сб
сб123:00+3юз11912 0.0 101910
02:00+2ю2191100 0.0 102118
05:00+3ю2286100 0.0 102134
08:00+4ю2384100 0.0 102161
11:00+7ююз2892100 0.3 1022346
14:00+11зюз31187100 0.3 1021815
17:00+11зюз21091100 0.0 1022769
20:00+10юз2695100 0.1 1024294
2 октября, вс
вс223:00+11юз2698100 0.1 1025293
02:00+11юз1497100 0.1 1026191
05:00+10з119893 0.0 102616
08:00+11зсз119697 0.0 102625
11:00+13з128738 0.0 1027236
14:00+17сз246198 0.1 10261290
17:00+18сз3453100 0.0 10241239
20:00+11с11861 0.0 102610
3 октября, пн
пн323:00+8ююз11965 0.0 102610
02:00+8ююз00975 0.0 102610
05:00+7юз019866 0.0 102511
08:00+6ююз11987 0.0 102611
11:00+14с23695 0.0 1024425
14:00+18с34498 0.0 1022942
17:00+18ссв34525 0.0 1021821
20:00+10ссв11855 0.0 102210
4 октября, вт
вт423:00+8вюв009541 0.0 102310
02:00+8юв119662 0.0 102210
05:00+7ююв119598 0.0 102114
08:00+8ююв118679 0.0 102112
11:00+18ююз014661 0.0 1019384
14:00+23зсз113468 0.0 10181106
17:00+22ссз22375 0.0 10171082
20:00+13ююв22725 0.0 102018